• In Portugal
  • List of Countries
  • For 7 days
  • Water Temperature
  • Satellite Maps
  • Weather Map
  • Weather Widgets
  • user-avatar
    Login

    Hourly Weather Konstantyna

    Today, 27 May, Sunday

    Time Temperature Precipitation Wind Pressure Humidity
    00:00 +25°C° 0 mm 2 mps 709 mmHg 37%
    01:00 +25°C° 0 mm 2 mps 709 mmHg 36%
    02:00 +25°C° 0 mm 3 mps 709 mmHg 36%
    03:00 +25°C° 0 mm 3 mps 709 mmHg 35%
    04:00 +25°C° 0 mm 3 mps 709 mmHg 38%
    05:00 +25°C° 0 mm 3 mps 709 mmHg 41%
    06:00 +26°C° 0 mm 3 mps 709 mmHg 43%
    07:00 +28°C° 0 mm 4 mps 710 mmHg 39%
    08:00 +30°C° 0 mm 4 mps 710 mmHg 34%
    09:00 +33°C° 0 mm 5 mps 711 mmHg 29%
    10:00 +33°C° 0 mm 5 mps 711 mmHg 30%
    11:00 +33°C° 0 mm 5 mps 711 mmHg 30%
    12:00 +34°C° 0 mm 6 mps 711 mmHg 30%
    13:00 +32°C° 0 mm 5 mps 710 mmHg 36%
    14:00 +30°C° 0 mm 4 mps 710 mmHg 42%
    15:00 +28°C° 0 mm 3 mps 710 mmHg 49%
    16:00 +28°C° 0 mm 3 mps 710 mmHg 51%
    17:00 +27°C° 0 mm 2 mps 710 mmHg 53%
    18:00 +27°C° 0 mm 2 mps 709 mmHg 56%
    19:00 +25°C° 0 mm 2 mps 710 mmHg 61%
    20:00 +24°C° 0 mm 2 mps 710 mmHg 67%
    21:00 +21°C° 0 mm 2 mps 710 mmHg 72%
    22:00 +21°C° 0 mm 2 mps 710 mmHg 72%
    23:00 +21°C° 0 mm 2 mps 710 mmHg 72%

    Tomorrow, 28 May, Monday

    Time Temperature Precipitation Wind Pressure Humidity
    00:00 +20°C° 0 mm 2 mps 709 mmHg 73%
    01:00 +20°C° 0 mm 2 mps 709 mmHg 74%
    02:00 +20°C° 0 mm 1 mps 709 mmHg 76%
    03:00 +20°C° 0 mm 1 mps 709 mmHg 78%
    04:00 +19°C° 0 mm 2 mps 709 mmHg 76%
    05:00 +20°C° 0 mm 2 mps 709 mmHg 75%
    06:00 +20°C° 0 mm 2 mps 709 mmHg 73%
    07:00 +22°C° 0.1 mm 3 mps 709 mmHg 66%
    08:00 +25°C° 0.1 mm 3 mps 709 mmHg 58%
    09:00 +27°C° 0.1 mm 4 mps 709 mmHg 51%
    10:00 +28°C° 0 mm 4 mps 708 mmHg 51%
    11:00 +28°C° 0 mm 5 mps 708 mmHg 50%
    12:00 +29°C° 0 mm 6 mps 708 mmHg 50%
    13:00 +29°C° 0.1 mm 5 mps 708 mmHg 52%
    14:00 +28°C° 0.1 mm 5 mps 707 mmHg 54%
    15:00 +27°C° 0.1 mm 5 mps 707 mmHg 57%
    16:00 +26°C° 0 mm 4 mps 707 mmHg 64%
    17:00 +23°C° 0 mm 4 mps 707 mmHg 71%
    18:00 +21°C° 0 mm 4 mps 706 mmHg 78%
    19:00 +20°C° 0 mm 3 mps 707 mmHg 82%
    20:00 +19°C° 0 mm 3 mps 707 mmHg 85%
    21:00 +18°C° 0 mm 2 mps 708 mmHg 89%
    22:00 +18°C° 0 mm 2 mps 708 mmHg 89%
    23:00 +18°C° 0 mm 2 mps 708 mmHg 90%

    Day after tomorrow, 29 May, Tuesday

    Time Temperature Precipitation Wind Pressure Humidity
    00:00 +18°C° 0 mm 1 mps 708 mmHg 91%
    01:00 +18°C° 0 mm 1 mps 708 mmHg 92%
    02:00 +18°C° 0 mm 1 mps 708 mmHg 92%
    03:00 +18°C° 0 mm 1 mps 708 mmHg 93%
    04:00 +18°C° 0 mm 1 mps 708 mmHg 91%
    05:00 +18°C° 0 mm 1 mps 708 mmHg 90%
    06:00 +19°C° 0 mm 1 mps 708 mmHg 88%
    07:00 +19°C° 0 mm 1 mps 708 mmHg 83%
    08:00 +19°C° 0 mm 2 mps 708 mmHg 79%
    09:00 +20°C° 0 mm 2 mps 708 mmHg 74%
    10:00 +21°C° 0 mm 2 mps 708 mmHg 70%
    11:00 +23°C° 0 mm 2 mps 708 mmHg 66%
    12:00 +24°C° 0 mm 2 mps 708 mmHg 62%
    13:00 +25°C° 0 mm 3 mps 708 mmHg 61%
    14:00 +25°C° 0 mm 3 mps 708 mmHg 60%
    15:00 +26°C° 0 mm 3 mps 708 mmHg 59%
    16:00 +25°C° 0 mm 3 mps 708 mmHg 64%
    17:00 +24°C° 0 mm 3 mps 708 mmHg 68%
    18:00 +22°C° 0 mm 3 mps 708 mmHg 73%
    19:00 +21°C° 0 mm 2 mps 708 mmHg 79%
    20:00 +19°C° 0 mm 2 mps 708 mmHg 84%
    21:00 +19°C° 0 mm 1 mps 709 mmHg 90%
    22:00 +19°C° 0 mm 1 mps 708 mmHg 91%
    23:00 +18°C° 0 mm 1 mps 708 mmHg 91%

    30 May, Wednesday

    Time Temperature Precipitation Wind Pressure Humidity
    00:00 +18°C° 0 mm 1 mps 708 mmHg 92%
    01:00 +18°C° 0 mm 1 mps 707 mmHg 92%
    02:00 +18°C° 0 mm 1 mps 707 mmHg 93%
    03:00 +16°C° 0 mm 1 mps 707 mmHg 93%
    04:00 +18°C° 0 mm 1 mps 707 mmHg 90%
    05:00 +19°C° 0 mm 1 mps 707 mmHg 86%
    06:00 +20°C° 0 mm 1 mps 708 mmHg 83%
    07:00 +21°C° 0 mm 1 mps 708 mmHg 73%
    08:00 +23°C° 0 mm 1 mps 709 mmHg 64%
    09:00 +25°C° 0 mm 2 mps 709 mmHg 54%
    10:00 +26°C° 0 mm 2 mps 709 mmHg 49%
    11:00 +28°C° 0 mm 3 mps 709 mmHg 45%
    12:00 +29°C° 0 mm 3 mps 709 mmHg 40%
    13:00 +29°C° 0.1 mm 3 mps 709 mmHg 42%
    14:00 +29°C° 0.1 mm 4 mps 709 mmHg 45%
    15:00 +29°C° 0.1 mm 4 mps 708 mmHg 47%
    16:00 +27°C° 0.7 mm 4 mps 708 mmHg 56%
    17:00 +25°C° 0.7 mm 4 mps 708 mmHg 65%
    18:00 +22°C° 0.7 mm 4 mps 708 mmHg 74%
    19:00 +21°C° 0.4 mm 3 mps 708 mmHg 79%
    20:00 +20°C° 0.4 mm 3 mps 708 mmHg 83%
    21:00 +19°C° 0.4 mm 2 mps 708 mmHg 88%
    22:00 +18°C° 0.1 mm 2 mps 708 mmHg 89%
    23:00 +18°C° 0.1 mm 2 mps 708 mmHg 90%

    31 May, Thursday

    Time Temperature Precipitation Wind Pressure Humidity
    00:00 +18°C° 0.1 mm 2 mps 708 mmHg 91%
    01:00 +19°C° 0.3 mm 1 mps 708 mmHg 91%
    02:00 +18°C° 0.3 mm 1 mps 708 mmHg 92%
    03:00 +18°C° 0.3 mm 1 mps 708 mmHg 93%
    04:00 +19°C° 0.2 mm 1 mps 708 mmHg 91%
    05:00 +19°C° 0.2 mm 1 mps 709 mmHg 90%
    06:00 +19°C° 0.2 mm 1 mps 709 mmHg 89%
    07:00 +19°C° 0.1 mm 2 mps 709 mmHg 84%
    08:00 +20°C° 0.1 mm 2 mps 709 mmHg 79%
    09:00 +21°C° 0.1 mm 2 mps 710 mmHg 73%
    10:00 +23°C° 0 mm 2 mps 710 mmHg 67%
    11:00 +25°C° 0 mm 3 mps 710 mmHg 61%
    12:00 +26°C° 0 mm 3 mps 710 mmHg 55%
    13:00 +26°C° 0 mm 3 mps 710 mmHg 56%
    14:00 +27°C° 0 mm 4 mps 709 mmHg 56%
    15:00 +27°C° 0 mm 4 mps 709 mmHg 57%
    16:00 +25°C° 0.4 mm 4 mps 709 mmHg 65%
    17:00 +22°C° 0.4 mm 4 mps 709 mmHg 74%
    18:00 +20°C° 0.4 mm 4 mps 709 mmHg 82%
    19:00 +20°C° 0.3 mm 3 mps 710 mmHg 84%
    20:00 +19°C° 0.3 mm 2 mps 710 mmHg 86%
    21:00 +19°C° 0.3 mm 1 mps 711 mmHg 89%
    22:00 +19°C° 0.2 mm 1 mps 710 mmHg 89%
    23:00 +19°C° 0.2 mm 1 mps 710 mmHg 90%

    1 June, Friday

    Time Temperature Precipitation Wind Pressure Humidity
    00:00 +16°C° 0.2 mm 0 mps 710 mmHg 90%
    01:00 +16°C° 0 mm 0 mps 710 mmHg 91%
    02:00 +18°C° 0 mm 1 mps 710 mmHg 92%
    03:00 +18°C° 0 mm 1 mps 710 mmHg 92%
    04:00 +18°C° 0 mm 1 mps 710 mmHg 89%
    05:00 +19°C° 0 mm 1 mps 710 mmHg 87%
    06:00 +19°C° 0 mm 1 mps 710 mmHg 84%
    07:00 +21°C° 0 mm 1 mps 711 mmHg 76%
    08:00 +23°C° 0 mm 1 mps 711 mmHg 68%
    09:00 +25°C° 0 mm 1 mps 711 mmHg 60%
    10:00 +26°C° 0 mm 1 mps 711 mmHg 55%
    11:00 +28°C° 0 mm 1 mps 711 mmHg 51%
    12:00 +29°C° 0 mm 2 mps 711 mmHg 46%
    13:00 +29°C° 0 mm 2 mps 711 mmHg 48%
    14:00 +29°C° 0 mm 3 mps 710 mmHg 49%
    15:00 +29°C° 0 mm 3 mps 710 mmHg 51%
    16:00 +27°C° 0.2 mm 3 mps 710 mmHg 57%
    17:00 +26°C° 0.2 mm 3 mps 710 mmHg 64%
    18:00 +24°C° 0.2 mm 3 mps 710 mmHg 70%
    19:00 +23°C° 1 mm 2 mps 710 mmHg 75%
    20:00 +21°C° 1 mm 2 mps 711 mmHg 80%
    21:00 +21°C° 1 mm 1 mps 711 mmHg 85%
    22:00 +21°C° 0.9 mm 1 mps 711 mmHg 85%
    23:00 +21°C° 0.9 mm 1 mps 711 mmHg 85%
    Show more